NOAA 16 DEB, 41289

Orbit data source: Space-Track

NOAA 16 DEB, 41289 is space debris in SSO originally from a launch on Thu, 21 Sep 2000 UTC launched from the Air Force Western Test Range (AFWTR). Debris objects in space refer to the collection of defunct objects orbiting the Earth. Examples of debris include non-operational satellites, rocket bodies, and fragments generated from explosions, collisions, or faulty payload assembly.

Loading next visibility...
Identifier
41289, 2000-055GR
Orbit
SSO
Country
Flag of USUS
Related business
Manufacturer
Unknown
Mission
Spacecraft
Bus & Motor
Unknown
Mass
Unknown
Launch date (UTC)
2000-09-21 (25 years ago)
Launch vehicle
Unknown
Launch site
Air Force Western Test Range (AFWTR)
Object type
Payload
Rocket body
Debris
Shape & HBR
Unknown shape, 0.1 m
Radar Cross Section
Small (<0.1 m²)

Expand to show TLE details & history
Last TLE update: 2 days ago

TLE from 2 days ago
0 NOAA 16 DEB
1 41289U 00055GR  26035.49084781  .00003473  00000-0  17169-2 0  9994
2 41289  98.6525  56.8496 0032563 270.9281  88.8164 14.17709703519916
Epoch: 2026-02-04T11:46Z
TLE epoch observation values (Epoch: 2026-02-04T11:46:49.250Z)
Latitude
0.00001°
Longitude
105.48772°
Altitude
835.613 km
Speed
7.435 km/s
True Right ascension
03h 47m 23s
True Declination
0° 00' 00"
Sunlit
Object was in daylight at epoch
Visualization orbit readout
Latitude
Unknown
Longitude
Unknown
Altitude
Unknown
Speed
Unknown
Apparent Right ascension
Unknown
Apparent Declination
Unknown
Sunlit
N/A
Visualization observer readout
Local Sidereal Time
18:21:54
Azimuth
Unknown
Elevation
Unknown
Doppler factor
Unknown
Orbital elements
Apogee altitude
853.74 km
Perigee altitude
806.795 km
Semi-major axis
7,208.405 km
Eccentricity
0.00326
Inclination
98.6525°
RAAN
56.8496°
Arg. of periapsis
270.9281°
True anomaly
89.18949°
Mean anomaly
88.8164°
Eccentric anomaly
89.00294°
Mean motion
3.54637 °/min
Orbital period
101.51 mins
BSTAR
0.0017169
Loading maneuver chart data...
Computing Atmospheric mass density...
Loading historical data...
Loading historical data...
Loading historical data...
Loading historical data...
Loading historical data...
Loading historical data...
Loading historical data...

Documentation

Showing up to 5 results
|